APG326 RPLL-RPVK

Flight info

Callsign APG326
Flight time 0h 37m
Altitude 23000
Route VERDE2R VERDE W24 TAPER TAPER1A
Aircraft A320/M-SDE3FGHIRWY/LB1

Departure

Time 2026-04-20 06:32
Airport Ninoy Aquino International Airport (RPLL)

Arrival

Time 2026-04-20 07:10
Airport Kalibo International Airport (RPVK)
Time Latitude Longitude Altitude Speed Heading
2026-04-20 06:18 14.50368 121.00475 69 ft 0 kts 308°
2026-04-20 06:24 14.50363 121.00480 59 ft 2 kts 308°
2026-04-20 06:24 14.50353 121.00494 60 ft 2 kts 308°
2026-04-20 06:24 14.50342 121.00508 59 ft 2 kts 308°
2026-04-20 06:25 14.50331 121.00522 63 ft 3 kts 304°
2026-04-20 06:25 14.50324 121.00539 64 ft 3 kts 268°
2026-04-20 06:25 14.50327 121.00555 69 ft 0 kts 239°
2026-04-20 06:27 14.50322 121.00547 59 ft 8 kts 239°
2026-04-20 06:27 14.50284 121.00480 63 ft 11 kts 239°
2026-04-20 06:27 14.50249 121.00417 62 ft 10 kts 241°
2026-04-20 06:27 14.50219 121.00361 67 ft 8 kts 241°
2026-04-20 06:28 14.50209 121.00346 60 ft 8 kts 233°
2026-04-20 06:28 14.50101 121.00303 64 ft 11 kts 245°
2026-04-20 06:28 14.50079 121.00259 64 ft 10 kts 241°
2026-04-20 06:28 14.50047 121.00201 68 ft 10 kts 240°
2026-04-20 06:29 14.49987 121.00093 67 ft 17 kts 240°
2026-04-20 06:29 14.49939 121.00006 69 ft 11 kts 240°
2026-04-20 06:29 14.49904 120.99963 67 ft 7 kts 211°
2026-04-20 06:29 14.49881 120.99964 69 ft 0 kts 155°
2026-04-20 06:30 14.49880 120.99964 69 ft 1 kts 155°
2026-04-20 06:30 14.49866 120.99971 67 ft 4 kts 155°
2026-04-20 06:30 14.49807 121.00012 66 ft 9 kts 118°
2026-04-20 06:31 14.49820 121.00073 69 ft 9 kts 55°
2026-04-20 06:31 14.49825 121.00081 69 ft 0 kts 57°
2026-04-20 06:31 14.49963 121.00337 65 ft 79 kts 62°
2026-04-20 06:32 14.50341 121.01015 69 ft 137 kts 60°
2026-04-20 06:32 14.50892 121.01993 298 ft 163 kts 56°
2026-04-20 06:32 14.51580 121.02901 981 ft 160 kts 60°
2026-04-20 06:32 14.52235 121.03877 1396 ft 179 kts 56°
2026-04-20 06:33 14.52995 121.05000 1728 ft 202 kts 57°
2026-04-20 06:33 14.53829 121.06246 2076 ft 227 kts 57°
2026-04-20 06:33 14.54779 121.07657 2550 ft 252 kts 57°
2026-04-20 06:33 14.55810 121.09190 3265 ft 264 kts 56°
2026-04-20 06:34 14.56747 121.10820 4195 ft 265 kts 71°
2026-04-20 06:34 14.57021 121.12692 5102 ft 267 kts 95°
2026-04-20 06:34 14.55172 121.15976 6715 ft 281 kts 147°
2026-04-20 06:35 14.53334 121.16677 7492 ft 287 kts 173°
2026-04-20 06:35 14.51329 121.16570 8312 ft 291 kts 187°
2026-04-20 06:35 14.49304 121.16299 9152 ft 295 kts 187°
2026-04-20 06:35 14.47259 121.16013 9930 ft 299 kts 187°
2026-04-20 06:36 14.45136 121.15717 10306 ft 319 kts 187°
2026-04-20 06:36 14.42855 121.15405 10506 ft 342 kts 187°
2026-04-20 06:36 14.40414 121.15076 10711 ft 363 kts 186°
2026-04-20 06:36 14.37873 121.14736 11229 ft 371 kts 186°
2026-04-20 06:37 14.35293 121.14392 11858 ft 376 kts 186°
2026-04-20 06:37 14.32721 121.14053 12489 ft 380 kts 186°
2026-04-20 06:37 14.30082 121.13705 13103 ft 384 kts 186°
2026-04-20 06:37 14.27414 121.13352 13720 ft 389 kts 186°
2026-04-20 06:38 14.24717 121.12994 14265 ft 393 kts 186°
2026-04-20 06:38 14.21991 121.12634 14808 ft 396 kts 186°
2026-04-20 06:38 14.19240 121.12274 15367 ft 399 kts 187°
2026-04-20 06:38 14.16479 121.11909 15918 ft 401 kts 187°
2026-04-20 06:39 14.13688 121.11535 16469 ft 404 kts 187°
2026-04-20 06:39 14.10888 121.11161 16997 ft 407 kts 187°
2026-04-20 06:39 14.08072 121.10789 17524 ft 410 kts 187°
2026-04-20 06:39 14.05224 121.10415 18047 ft 413 kts 187°
2026-04-20 06:40 14.02360 121.10036 18505 ft 416 kts 187°
2026-04-20 06:40 13.99476 121.09653 18955 ft 419 kts 187°
2026-04-20 06:40 13.96578 121.09267 19415 ft 421 kts 187°
2026-04-20 06:40 13.93701 121.08886 19854 ft 423 kts 187°
2026-04-20 06:41 13.90767 121.08499 20292 ft 426 kts 186°
2026-04-20 06:41 13.87821 121.08111 20723 ft 428 kts 186°
2026-04-20 06:41 13.84854 121.07720 21143 ft 430 kts 186°
2026-04-20 06:41 13.81877 121.07327 21558 ft 432 kts 186°
2026-04-20 06:42 13.78888 121.06935 21974 ft 434 kts 186°
2026-04-20 06:42 13.75884 121.06541 22378 ft 437 kts 186°
2026-04-20 06:42 13.72862 121.06144 22752 ft 439 kts 186°
2026-04-20 06:42 13.69829 121.05745 22874 ft 442 kts 186°
2026-04-20 06:43 13.66739 121.05337 22895 ft 452 kts 186°
2026-04-20 06:43 13.63589 121.04919 22895 ft 459 kts 186°
2026-04-20 06:43 13.60454 121.04505 22896 ft 461 kts 186°
2026-04-20 06:43 13.57270 121.04086 22900 ft 461 kts 186°
2026-04-20 06:44 13.54068 121.03937 22902 ft 460 kts 176°
2026-04-20 06:44 13.50900 121.04373 22903 ft 459 kts 166°
2026-04-20 06:44 13.47868 121.05378 22902 ft 458 kts 156°
2026-04-20 06:44 13.45066 121.06911 22907 ft 457 kts 146°
2026-04-20 06:45 13.42441 121.08751 22908 ft 457 kts 145°
2026-04-20 06:45 13.39815 121.10599 22907 ft 457 kts 145°
2026-04-20 06:45 13.37187 121.12447 22907 ft 457 kts 145°
2026-04-20 06:45 13.34561 121.14292 22909 ft 457 kts 145°
2026-04-20 06:46 13.31968 121.16108 22905 ft 456 kts 145°
2026-04-20 06:46 13.29344 121.17946 22906 ft 456 kts 145°
2026-04-20 06:46 13.26726 121.19783 22908 ft 456 kts 145°
2026-04-20 06:46 13.24102 121.21624 22906 ft 456 kts 145°
2026-04-20 06:47 13.21484 121.23462 22903 ft 456 kts 145°
2026-04-20 06:47 13.18865 121.25298 22905 ft 455 kts 145°
2026-04-20 06:47 13.16251 121.27131 22900 ft 455 kts 145°
2026-04-20 06:47 13.13638 121.28963 22902 ft 455 kts 145°
2026-04-20 06:48 13.11024 121.30796 22900 ft 455 kts 145°
2026-04-20 06:48 13.08405 121.32628 22896 ft 455 kts 145°
2026-04-20 06:48 13.05818 121.34436 22893 ft 455 kts 145°
2026-04-20 06:48 13.03205 121.36262 22890 ft 455 kts 145°
2026-04-20 06:49 13.00592 121.38089 22888 ft 455 kts 145°
2026-04-20 06:49 12.97974 121.39918 22888 ft 455 kts 145°
2026-04-20 06:49 12.95360 121.41747 22886 ft 455 kts 145°
2026-04-20 06:49 12.92738 121.43586 22886 ft 455 kts 145°
2026-04-20 06:50 12.90121 121.45422 22890 ft 455 kts 145°
2026-04-20 06:50 12.87503 121.47257 22885 ft 455 kts 145°
2026-04-20 06:50 12.84882 121.49087 22885 ft 456 kts 145°
2026-04-20 06:50 12.82261 121.50913 22885 ft 455 kts 145°
2026-04-20 06:51 12.79642 121.52739 22886 ft 455 kts 145°
2026-04-20 06:51 12.77021 121.54569 22883 ft 456 kts 145°
2026-04-20 06:51 12.74437 121.56377 22879 ft 456 kts 145°
2026-04-20 06:51 12.71817 121.58209 22883 ft 456 kts 145°
2026-04-20 06:52 12.69199 121.60037 22881 ft 456 kts 145°
2026-04-20 06:52 12.66577 121.61866 22881 ft 456 kts 145°
2026-04-20 06:52 12.63951 121.63693 22884 ft 456 kts 145°
2026-04-20 06:52 12.61323 121.65523 22885 ft 457 kts 145°
2026-04-20 06:53 12.58695 121.67351 22882 ft 457 kts 145°
2026-04-20 06:53 12.56069 121.69176 22885 ft 457 kts 145°
2026-04-20 06:53 12.53441 121.71002 22880 ft 457 kts 145°
2026-04-20 06:53 12.50813 121.72828 22880 ft 456 kts 145°
2026-04-20 06:54 12.48181 121.74659 22661 ft 459 kts 145°
2026-04-20 06:54 12.45534 121.76503 21664 ft 461 kts 145°
2026-04-20 06:54 12.42898 121.78341 20931 ft 455 kts 145°
2026-04-20 06:54 12.40298 121.80151 20197 ft 450 kts 145°
2026-04-20 06:55 12.37722 121.81944 19480 ft 445 kts 146°
2026-04-20 06:55 12.35069 121.83546 18780 ft 442 kts 152°
2026-04-20 06:55 12.32350 121.84983 18068 ft 439 kts 152°
2026-04-20 06:55 12.29648 121.86409 17369 ft 434 kts 152°
2026-04-20 06:56 12.26976 121.87814 16751 ft 428 kts 152°
2026-04-20 06:56 12.24349 121.89200 16135 ft 423 kts 152°
2026-04-20 06:56 12.21745 121.90576 15544 ft 419 kts 152°
2026-04-20 06:56 12.19196 121.91920 14972 ft 415 kts 152°
2026-04-20 06:57 12.16638 121.93267 14387 ft 412 kts 152°
2026-04-20 06:57 12.14099 121.94605 13791 ft 409 kts 152°
2026-04-20 06:57 12.11576 121.95937 13125 ft 407 kts 152°
2026-04-20 06:57 12.09070 121.97258 12465 ft 403 kts 151°
2026-04-20 06:58 12.06588 121.98560 11806 ft 400 kts 152°
2026-04-20 06:58 12.04121 121.99852 11119 ft 397 kts 152°
2026-04-20 06:58 12.01696 122.01125 10858 ft 382 kts 151°
2026-04-20 06:58 11.99387 122.02338 10736 ft 364 kts 151°
2026-04-20 06:59 11.97184 122.03501 10617 ft 348 kts 151°
2026-04-20 06:59 11.95070 122.04618 10501 ft 334 kts 151°
2026-04-20 06:59 11.93074 122.05668 10386 ft 320 kts 151°
2026-04-20 06:59 11.91130 122.06690 10267 ft 308 kts 151°
2026-04-20 07:00 11.89257 122.07674 10113 ft 298 kts 151°
2026-04-20 07:00 11.87431 122.08635 9946 ft 292 kts 150°
2026-04-20 07:00 11.85625 122.09587 9823 ft 293 kts 150°
2026-04-20 07:00 11.85008 122.09913 9598 ft 296 kts 150°
2026-04-20 07:01 11.84355 122.10258 9412 ft 298 kts 150°
2026-04-20 07:01 11.81923 122.11545 9010 ft 292 kts 150°
2026-04-20 07:01 11.80731 122.12169 8763 ft 290 kts 150°
2026-04-20 07:01 11.78958 122.13097 8163 ft 285 kts 150°
2026-04-20 07:02 11.77198 122.14017 7485 ft 283 kts 150°
2026-04-20 07:02 11.74888 122.15226 6626 ft 280 kts 150°
2026-04-20 07:02 11.73727 122.15836 6195 ft 277 kts 150°
2026-04-20 07:02 11.72019 122.16731 5503 ft 275 kts 150°
2026-04-20 07:03 11.69789 122.17900 4738 ft 269 kts 150°
2026-04-20 07:03 11.68672 122.18486 4370 ft 266 kts 150°
2026-04-20 07:03 11.67070 122.19326 4020 ft 251 kts 151°
2026-04-20 07:03 11.65595 122.20096 3973 ft 226 kts 149°
2026-04-20 07:04 11.64267 122.20788 3906 ft 206 kts 149°
2026-04-20 07:04 11.63011 122.21447 3843 ft 200 kts 149°
2026-04-20 07:04 11.61795 122.22087 3789 ft 190 kts 149°
2026-04-20 07:04 11.60657 122.22684 3689 ft 178 kts 148°
2026-04-20 07:05 11.59591 122.23241 3585 ft 166 kts 148°
2026-04-20 07:05 11.58592 122.23763 3523 ft 157 kts 148°
2026-04-20 07:05 11.57777 122.24420 3462 ft 144 kts 121°
2026-04-20 07:05 11.57445 122.25342 3405 ft 139 kts 92°
2026-04-20 07:06 11.57607 122.26313 3191 ft 141 kts 65°
2026-04-20 07:06 11.58229 122.27058 2931 ft 144 kts 36°
2026-04-20 07:06 11.59055 122.27615 2676 ft 139 kts 37°
2026-04-20 07:06 11.59864 122.28188 2420 ft 142 kts 44°
2026-04-20 07:07 11.60507 122.28929 2228 ft 140 kts 51°
2026-04-20 07:07 11.61142 122.29666 2007 ft 138 kts 50°
2026-04-20 07:07 11.61788 122.30412 1792 ft 141 kts 50°
2026-04-20 07:07 11.62432 122.31157 1616 ft 139 kts 51°
2026-04-20 07:08 11.63069 122.31892 1385 ft 137 kts 51°
2026-04-20 07:08 11.63699 122.32620 1210 ft 138 kts 51°
2026-04-20 07:08 11.64332 122.33352 1011 ft 137 kts 51°
2026-04-20 07:08 11.64968 122.34087 807 ft 139 kts 50°
2026-04-20 07:09 11.65601 122.34817 604 ft 136 kts 49°
2026-04-20 07:09 11.66228 122.35542 391 ft 136 kts 50°
2026-04-20 07:09 11.66841 122.36265 211 ft 138 kts 49°
2026-04-20 07:09 11.67457 122.36985 23 ft 123 kts 43°
2026-04-20 07:10 11.67853 122.37437 24 ft 42 kts 49°
2026-04-20 07:10 11.67991 122.37596 23 ft 28 kts 49°
2026-04-20 07:10 11.68117 122.37743 22 ft 27 kts 49°
2026-04-20 07:10 11.68244 122.37889 22 ft 27 kts 49°
2026-04-20 07:11 11.68337 122.37999 21 ft 15 kts 49°
2026-04-20 07:11 11.68393 122.38003 21 ft 7 kts 345°
2026-04-20 07:11 11.68426 122.38025 23 ft 7 kts 49°
2026-04-20 07:11 11.68472 122.38082 22 ft 7 kts 50°
2026-04-20 07:12 11.68497 122.38110 22 ft 3 kts 37°
2026-04-20 07:12 11.68506 122.38111 22 ft 0 kts 10°
2026-04-20 07:12 11.68514 122.38111 22 ft 2 kts
2026-04-20 07:12 11.68522 122.38110 22 ft 1 kts 351°
2026-04-20 07:13 11.68544 122.38107 23 ft 0 kts 351°
2026-04-20 07:13 11.68545 122.38107 23 ft 0 kts 351°